Theta_e
348 347 350 350 345 340 336 333 332 331 333 339 343 344 343 338 334 333 330 338 343 347 347 345 342 344 343 343 342 338 333 328 329 336 342 343 342 340 341 341 336 331 334
347 346 350 349 345 340 336 334 333 331 330 332 338 342 340 338 334 330 331 338 341 345 345 342 340 338 341 342 338 332 330 331 333 341 344 347 344 344 342 339 331 331 330
347 346 350 349 345 341 337 334 333 331 328 329 332 336 337 334 330 328 335 339 341 340 338 338 333 330 331 332 330 331 332 333 334 342 342 341 343 342 341 332 329 329 327
347 347 350 350 346 341 337 335 333 331 328 327 328 330 330 327 327 333 339 339 339 339 339 336 333 329 329 329 331 332 332 332 331 330 331 333 338 338 334 331 327 327 327
350 346 349 350 347 342 337 335 333 331 328 326 325 326 325 326 329 336 338 339 340 340 339 337 335 332 332 333 333 333 331 333 339 341 344 345 346 341 332 329 327 327 327
350 347 348 349 348 343 337 334 333 331 329 326 324 325 326 328 332 337 339 339 338 336 335 333 329 329 329 331 333 333 334 338 342 343 347 346 345 344 343 338 327 328 329
349 347 347 349 349 344 337 335 333 332 330 328 326 325 326 330 334 336 337 335 334 332 331 332 329 325 325 328 330 331 337 339 338 344 345 342 343 342 340 338 330 327 329
348 348 348 349 348 345 337 335 333 333 331 329 328 327 328 330 332 333 332 332 332 333 332 329 327 325 324 325 326 328 331 332 336 340 339 339 340 343 339 334 331 328 330
349 352 353 349 348 345 338 336 334 333 332 331 329 329 330 333 335 334 333 334 334 333 326 325 325 325 326 326 327 329 333 337 338 337 336 335 336 339 342 342 333 333 331
354 354 356 353 349 344 338 337 335 334 334 332 331 330 331 335 337 337 337 337 334 330 329 327 327 327 327 328 328 329 330 331 331 331 331 331 332 332 335 340 343 340 336
354 354 357 353 353 344 340 338 336 335 336 335 333 332 332 333 334 335 335 333 332 332 331 329 328 328 328 328 327 327 327 328 331 334 336 337 337 337 333 333 339 341 341
352 352 352 351 354 346 344 340 337 337 337 337 335 333 332 332 333 334 334 334 333 332 333 333 332 330 328 327 326 326 326 327 334 337 339 339 339 338 338 336 338 342 343
350 350 350 354 349 348 348 343 340 338 339 339 337 335 333 333 331 332 334 334 334 334 335 333 333 332 332 331 328 325 328 333 337 340 340 340 339 339 339 342 344 342 339
350 350 350 350 348 347 349 344 341 339 340 341 340 336 334 333 331 331 332 333 334 337 339 338 336 335 336 335 334 335 335 337 340 339 338 337 338 338 339 341 340 338 336
349 349 349 348 347 349 348 346 343 341 340 339 338 335 331 332 329 328 330 333 336 340 341 340 339 338 339 340 337 337 339 340 339 338 337 335 334 335 335 336 336 336 336
349 349 348 348 348 348 348 346 343 341 338 339 338 334 330 329 327 329 329 338 341 342 342 342 343 342 343 341 340 339 338 338 337 335 331 329 329 330 331 329 330 330 330
349 348 347 347 349 348 346 342 339 338 337 337 334 334 330 328 332 339 338 339 341 341 343 343 343 344 343 341 340 338 337 335 332 328 327 325 328 328 329 330 328 332 330
349 348 348 347 349 347 345 341 338 337 336 335 333 331 332 328 334 341 341 342 343 342 344 345 345 343 340 339 338 338 335 331 329 325 324 323 324 326 328 326 328 329 333
348 348 347 345 345 346 343 341 340 339 335 333 332 331 331 329 332 339 340 342 346 344 345 345 343 340 339 337 334 332 329 325 323 324 324 328 327 325 319 318 319 319 324
348 347 345 344 344 345 343 342 340 339 336 334 333 333 333 332 332 338 340 342 347 345 344 343 340 337 336 331 329 328 325 320 320 328 324 321 318 317 317 317 317 317 317
347 346 344 343 342 344 342 341 340 340 338 337 335 334 338 340 337 338 340 347 344 343 342 339 338 333 328 326 325 325 325 326 328 328 323 319 317 317 318 318 317 317 317
346 345 343 342 342 342 341 340 340 339 337 338 339 340 341 343 343 341 345 345 343 341 338 335 332 329 326 325 327 325 328 327 328 328 324 319 317 317 317 317 318 317 317
344 343 343 342 341 342 342 341 342 341 342 342 343 345 344 344 344 344 345 344 342 337 335 330 328 327 324 330 329 327 329 330 326 326 324 318 318 317 317 316 316 317 315
345 344 342 342 342 342 345 343 343 345 347 346 345 346 347 346 345 344 343 341 337 334 330 329 329 327 327 328 328 327 327 326 327 326 321 318 318 318 316 315 314 314 313
345 345 343 342 342 342 347 345 345 345 347 348 346 345 346 345 344 343 339 337 334 329 329 329 330 329 328 327 325 320 317 317 317 318 319 317 318 317 316 314 313 312 314
345 344 344 341 341 341 346 348 347 347 346 346 344 342 343 342 340 337 335 332 330 328 327 330 330 327 321 319 319 319 319 318 318 318 318 317 316 315 314 314 313 313 314
Wind_Speed
28 35 34 33 31 28 27 26 24 24 24 26 26 26 25 24 24 25 26 25 22 19 15 13 13 13 12 11 9 8 8 9 10 11 11 10 9 9 8 8 8 9 9
37 37 35 34 32 29 27 26 25 24 23 23 25 27 25 24 24 24 26 24 20 16 13 11 11 10 10 9 8 8 9 10 11 11 11 9 7 5 5 6 7 7 7
41 37 35 34 32 31 29 26 23 23 22 23 24 24 24 23 24 26 25 22 18 16 13 12 10 9 9 8 8 9 10 10 11 11 9 8 5 4 5 5 5 5 5
44 38 35 33 31 30 29 27 24 22 22 22 23 23 24 24 25 25 23 19 15 14 13 12 10 9 9 9 9 9 9 10 10 9 7 5 3 3 3 5 5 5 5
41 38 36 33 31 30 29 28 26 23 22 22 22 23 24 25 25 23 20 17 14 13 12 10 8 8 7 6 7 8 9 9 8 6 4 1 2 3 4 5 7 7 6
38 36 36 34 32 30 29 28 27 24 22 21 22 22 23 23 22 20 18 15 13 11 10 9 8 8 8 8 7 8 9 9 7 4 0 3 6 9 10 9 9 9 9
39 37 35 34 33 31 29 27 26 24 22 21 21 21 22 21 20 18 17 15 13 11 10 9 9 9 8 8 8 9 10 9 6 4 2 5 8 8 9 11 12 12 11
41 37 35 33 31 30 29 27 26 24 23 22 21 21 21 19 18 16 15 13 12 10 8 8 8 8 8 7 7 7 8 7 6 4 5 6 7 8 8 10 11 12 12
38 33 31 32 31 30 28 27 26 24 23 21 20 20 20 19 17 16 14 12 10 9 7 6 6 5 4 4 3 3 4 4 6 7 9 11 12 11 10 13 15 15 15
28 26 25 29 31 30 29 27 26 24 22 20 20 20 19 17 15 14 12 10 8 7 5 4 3 1 1 1 2 2 4 6 7 9 9 11 12 12 12 13 15 19 17
24 25 27 29 29 32 30 28 26 24 21 19 19 18 19 18 16 14 11 9 7 5 3 2 1 1 2 3 3 4 5 5 7 10 12 12 12 14 14 14 14 13 16
27 26 31 27 30 33 31 29 27 25 22 20 19 18 18 17 15 13 10 8 6 5 3 2 1 1 3 4 5 6 6 6 5 8 9 11 12 12 12 12 10 9 10
29 27 32 33 35 35 30 32 29 27 24 20 19 17 16 16 15 14 11 9 8 6 5 3 3 2 3 4 5 5 4 4 5 5 7 9 11 12 11 6 2 3 3
30 28 34 37 36 35 33 32 33 31 28 25 20 18 17 16 14 13 13 11 9 6 4 4 3 3 3 4 3 4 3 3 4 7 9 9 10 9 6 2 1 5 7
29 28 34 37 36 34 33 33 34 31 30 27 25 23 21 17 16 16 14 11 9 7 5 3 4 4 5 6 4 3 3 5 7 9 11 12 11 9 8 7 9 12 15
30 31 37 37 34 35 34 36 36 32 30 29 27 24 21 20 17 16 15 13 10 8 8 7 7 7 8 8 7 6 7 8 9 11 10 10 7 7 6 9 11 11 14
37 34 33 32 31 36 37 37 36 33 31 30 27 25 24 22 20 16 14 12 10 8 8 9 9 9 6 4 4 5 8 11 11 9 8 6 4 4 5 9 13 14 13
29 38 33 33 35 38 37 36 35 34 32 30 27 26 25 23 21 18 13 11 10 10 11 10 9 7 4 2 5 7 11 11 12 8 4 6 6 3 8 9 10 11 14
36 34 36 38 41 39 35 34 33 32 30 28 28 27 25 23 20 17 14 11 9 11 11 11 9 6 3 4 7 9 10 10 7 2 6 8 5 6 8 9 9 11 12
32 32 33 39 38 38 35 32 28 27 28 27 27 25 22 21 20 16 13 13 9 10 10 9 7 2 3 4 7 10 9 3 4 5 11 13 12 10 10 11 13 14 15
32 34 37 37 38 38 36 33 30 32 29 28 25 23 23 21 17 16 14 12 11 9 8 7 4 1 2 5 6 4 1 1 6 9 8 9 10 13 10 14 15 13 13
36 38 38 39 40 40 37 33 25 30 26 26 23 20 19 18 15 15 16 15 10 7 7 4 3 3 4 7 6 3 3 1 2 3 5 7 13 15 14 15 12 12 14
26 33 39 43 43 38 36 34 21 24 19 22 20 19 19 16 17 18 18 13 8 8 6 5 3 3 5 7 6 3 1 1 4 0 1 1 13 16 14 16 13 13 16
29 34 34 33 38 39 35 36 31 26 17 16 23 19 16 19 21 19 14 11 9 8 8 6 5 7 7 5 3 3 2 1 1 4 3 7 15 14 12 19 15 17 17
31 33 35 33 35 37 36 38 34 25 24 20 19 20 19 16 19 15 13 12 11 11 8 7 8 7 6 4 3 2 2 4 2 0 4 5 19 17 16 15 17 21 15
27 27 28 30 32 36 35 37 36 29 27 22 21 23 24 22 18 16 14 14 12 12 12 10 7 7 8 8 7 6 6 3 3 2 3 6 10 14 24 4 9 15 12
Wind_Direction
170 169 164 163 162 152 146 138 133 130 133 138 144 144 140 138 140 143 146 146 145 140 131 122 121 122 123 127 122 120 121 122 122 119 117 113 120 124 130 131 130 125 128
165 168 165 164 161 154 148 142 137 134 137 141 144 146 145 146 145 147 147 146 145 141 135 129 126 126 129 131 128 127 125 124 125 126 124 127 123 132 137 135 134 131 130
165 166 165 165 161 156 150 144 141 139 141 144 147 149 149 148 148 148 147 146 145 143 138 132 129 129 131 134 133 132 130 130 128 127 131 129 121 131 163 136 141 138 140
164 164 165 165 162 157 152 148 146 143 142 144 147 149 148 146 147 147 146 144 141 138 136 133 131 131 134 137 136 133 130 130 125 122 125 129 127 144 155 184 177 173 173
163 164 164 166 165 160 156 151 149 148 145 145 145 147 147 147 148 148 147 142 136 133 130 130 129 125 125 127 132 135 137 137 130 125 113 73 309 270 241 226 208 206 206
163 165 166 168 167 163 159 155 152 149 147 146 146 148 148 147 148 148 147 142 139 138 136 132 134 142 145 147 149 150 149 152 154 153 176 307 294 285 256 247 242 228 230
165 168 169 170 168 165 162 158 152 150 148 148 148 151 152 151 151 153 155 154 155 156 154 153 154 155 159 163 167 166 167 169 177 196 256 321 324 299 258 245 247 245 245
168 170 170 171 169 166 164 159 156 154 151 151 152 155 155 153 153 158 162 161 161 161 164 165 164 165 167 171 180 184 185 195 206 237 284 305 325 319 271 260 258 264 264
170 167 167 170 170 168 166 161 160 158 155 155 156 159 159 159 158 159 161 163 166 173 177 171 167 169 176 180 185 199 220 260 282 292 311 320 330 327 321 284 270 270 270
158 158 160 166 168 167 166 164 163 163 160 159 160 162 164 165 161 163 169 174 175 178 182 176 166 168 183 259 285 289 287 287 302 312 315 313 309 299 288 294 293 274 279
158 161 164 161 164 168 166 165 164 165 162 163 165 168 170 173 173 176 179 179 182 184 186 179 184 219 266 268 272 277 288 309 326 335 333 329 321 313 300 284 286 299 279
167 166 169 165 165 167 163 165 166 163 167 169 171 174 180 181 182 184 184 189 194 199 216 227 259 287 297 302 310 308 320 325 337 348 1 3 354 338 308 275 281 271 272
167 168 169 169 171 166 161 166 165 167 169 174 178 180 184 187 190 192 193 196 205 207 223 234 246 258 286 311 315 313 326 331 348 358 6 3 358 348 346 335 286 234 314
171 172 174 175 169 170 165 168 169 172 174 177 181 183 190 191 193 204 206 202 211 225 224 242 273 290 310 327 329 330 320 323 338 333 337 333 328 340 340 328 182 224 255
172 175 177 174 173 171 168 170 175 178 180 180 182 186 185 194 196 200 211 210 213 221 243 254 258 267 271 278 290 304 318 317 312 319 322 321 319 316 315 322 305 298 298
175 179 180 178 176 177 175 176 179 182 183 183 186 188 188 185 195 202 208 217 222 230 244 253 269 269 279 269 266 286 290 295 303 313 324 338 333 337 329 339 336 320 308
183 177 181 179 183 184 184 183 182 185 185 186 189 190 191 192 181 199 203 222 239 250 261 254 265 273 261 243 262 284 297 303 307 318 333 340 329 318 333 339 339 326 319
175 182 181 184 187 190 190 188 184 186 187 188 191 194 197 196 190 196 207 237 253 258 267 249 243 246 228 249 280 285 292 299 305 312 348 351 336 344 6 0 349 334 299
185 180 182 188 193 193 194 192 191 189 189 191 195 199 197 199 196 200 215 232 241 254 249 231 217 208 236 285 291 295 302 309 310 335 13 14 74 50 36 31 14 0 347
186 183 183 191 194 194 194 195 193 194 196 197 200 204 199 200 202 203 222 243 226 223 210 204 203 226 296 314 314 310 305 308 63 72 93 84 71 52 31 13 360 348 334
184 184 188 189 196 194 194 191 192 196 197 200 202 201 203 202 199 208 220 222 198 198 205 215 217 176 54 4 350 344 20 60 110 113 112 77 54 36 30 14 10 17 12
181 186 188 192 195 195 194 189 188 192 194 202 198 202 204 200 202 210 215 198 200 216 217 190 180 142 75 40 43 13 359 11 91 22 139 56 33 19 11 14 10 8 7
182 185 188 192 196 190 194 187 184 182 185 196 201 203 202 208 208 211 207 201 201 190 157 152 146 106 109 66 49 58 356 298 314 317 141 0 5 1 3 4 359 345 352
193 193 193 192 191 191 194 187 185 177 170 186 194 201 201 208 208 202 197 179 163 151 142 139 115 101 104 91 59 37 39 357 323 322 325 308 339 349 354 352 353 336 334
196 195 194 193 192 191 191 193 191 178 188 181 186 192 184 186 181 163 166 155 140 141 143 130 114 96 84 91 83 47 33 18 38 17 296 317 326 331 339 328 339 338 334
199 194 188 191 190 192 189 196 196 185 179 166 152 150 150 153 147 149 144 129 132 134 126 120 102 89 89 93 80 65 56 27 349 333 286 305 312 329 327 319 330 333 328